Regional Weather Roundup
Issued by NWS

Home | Current Version | Previous Version | Graphics & Text | Print | Product List | Glossary On
Versions: 1 2 3 4 5 6 7 8 9 10 11 12 13 14 15 16 17 18 19 20 21 22 23 24 25 26 27 28 29 30 31 32 33 34 35 36 37 38 39 40 41 42 43 44 45 46 47 48 49 50
000
ASUS43 KDTX 181501
RWRMI
MICHIGAN HOURLY REGIONAL WEATHER ROUNDUP
NATIONAL WEATHER SERVICE DETROIT/PONTIAC MI
1100 AM EDT SAT APR 18 2015

NOTE: "FAIR" INDICATES FEW OR NO CLOUDS BELOW 12,000 FEET WITH NO
SIGNIFICANT WEATHER AND/OR OBSTRUCTION TO VISIBILITY.

MIZ047>049-052>055-059>063-066>070-074>076-081>083-181600-
SOUTHEAST LOWER MICHIGAN

CITY           SKY/WX    TMP DP  RH WIND       PRES   REMARKS
ADRIAN         MOSUNNY   72  49  44 N14G21    30.05S
ALMA           SUNNY     65  32  29 N10G17    30.11R
ANN ARBOR      MOSUNNY   71  45  39 N14       30.06R
BAD AXE        SUNNY     54  34  46 N17G25    30.13R
CARO           SUNNY     58  34  40 NE12G18   30.12R
DETROIT CITY   SUNNY     70  43  37 N14G20    30.07R
DETROIT        PTSUNNY   73  44  35 N12       30.06R
FLINT          SUNNY     67  37  33 NE13      30.09R
GROSSE ILE     PTSUNNY   70  45  40 N12G17    30.04S
HILLSDALE      SUNNY     70  48  44 N10       30.06R
HOWELL         SUNNY     66  34  30 N12G20    30.08R

CITY           SKY/WX    TMP DP  RH WIND       PRES   REMARKS
JACKSON        MOSUNNY   67  44  43 N10       30.07R
LAMBERTVILLE   MOSUNNY   72  46  40 NW6       30.04S
LANSING        SUNNY     66  38  35 NE13      30.09R
LAPEER         FAIR      63  34  34 N14       30.10R
MASON          MOSUNNY   65  37  35 NE12G20   30.08R
MONROE         MOSUNNY   70  48  46 N6        30.03S
PONTIAC        MOSUNNY   67  38  34 N14       30.07R
PORT HOPE        N/A     47  35  63 N10G20    30.12R
PORT HURON     SUNNY     57  37  47 NE18G24   30.11R
TRI CITIES     SUNNY     62  36  37 NE20      30.12R
TROY           MOSUNNY   70  37  29 N14G20    30.08S
SAGINAW HB     SUNNY     59  34  38 N22       30.12R
$$
MIZ043>046-050>051-056>058-064>065-071>073-077>080-181600-
SOUTHWEST LOWER MICHIGAN

CITY           SKY/WX    TMP DP  RH WIND       PRES   REMARKS
BATTLE CREEK   MOSUNNY   68  44  42 NE13      30.07S
BENTON HARBOR  SUNNY     67  47  48 NE9       30.05S
BIG RAPIDS     SUNNY     61  27  27 NE7G17    30.11R
COLDWATER      SUNNY     68  48  48 N13       30.06R
FREMONT        FAIR      63  27  25 E6        30.10R
HOLLAND        SUNNY     69  41  36 NE10G17   30.07S
GRAND RAPIDS   PTSUNNY   67  36  31 NE13      30.08R
IONIA          FAIR      66  35  31 E13       30.08S
KALAMAZOO      SUNNY     69  45  41 NE10G20   30.07R
LUDINGTON      SUNNY     58  35  40 NE14G20   30.13S
MARSHALL       MOSUNNY   66  45  46 NE7       30.06S
MOUNT PLEASANT SUNNY     63  32  32 N12       30.11R
MUSKEGON       PTSUNNY   67  32  27 NE13      30.09S
SOUTH HAVEN    SUNNY     68  40  36 E13G18    30.05S
$$
MIZ016>042-181600-
NORTHERN LOWER MICHIGAN

CITY           SKY/WX    TMP DP  RH WIND       PRES   REMARKS
ALPENA         SUNNY     52  32  46 N16       30.18R
BEAVER ISLAND  SUNNY     48  33  55 NE13G20   30.20R
BELLAIRE       SUNNY     53  31  42 NE9G18    30.17S
CADILLAC       SUNNY     56  32  39 N10G17    30.13R
CHARLEVOIX     SUNNY     42  34  72 N9        30.22R
FRANKFORT      SUNNY     52  32  47 N9        30.17R
GAYLORD        SUNNY     51  29  42 NE13      30.16R
GRAYLING       SUNNY     56  28  34 CALM      30.16R
HARBOR SPRINGS SUNNY     53  31  42 NE12      30.18R
HOUGHTON LAKE  SUNNY     58  29  33 N13G22    30.14R
MANISTEE       SUNNY     55  34  44 NE12G17   30.15S
OSCODA         SUNNY     56  32  40 NE17      30.14R
PELLSTON       SUNNY     51  32  48 N14       30.20R
ROGERS CITY    SUNNY     47  34  61 NW9       30.19R
TRAVERSE CITY  MOSUNNY   47  35  63 NE6       30.17R
$$
MIZ007>008-015-181600-
EASTERN UPPER MICHIGAN

CITY           SKY/WX    TMP DP  RH WIND       PRES   REMARKS
KINROSS        SUNNY     46  34  61 NW13      30.18R
MACKINAC ISLAN SUNNY     49  33  54 N8        30.19R
NEWBERRY       SUNNY     45  34  65 N12G21    30.20R
S. S. MARIE    SUNNY     50  30  46 N12       30.18R
$$
MIZ004>006-011>014-085-181600-
CENTRAL UPPER MICHIGAN

CITY           SKY/WX    TMP DP  RH WIND       PRES   REMARKS
MANISTIQUE     SUNNY     50  35  56 N13G20    30.20R
ESCANABA       SUNNY     48  34  57 NE10      30.22S
MENOMINEE      SUNNY     48  34  57 E12       30.20F
SAWYER-GWINN   PTSUNNY   41  32  70 NE16G23   30.23S
$$
MIZ001>003-009>011-084-181600-
WESTERN UPPER MICHIGAN

CITY           SKY/WX    TMP DP  RH WIND       PRES   REMARKS
IRON MOUNTAIN  SUNNY     46  32  58 VRB7      30.22S
HOUGHTON       SUNNY     44  32  62 SE12      30.24S
COPPER HARBOR    N/A     40  32  73 E5        30.27R
IRONWOOD       SUNNY     45  32  61 E12G18    30.19S
$$

ABBREVIATIONS USED IN REMARKS
   TC - TEMPERATURE IN CELSIUS
  WCI - WIND CHILL INDEX
   HX - HEAT INDEX
  VSB - VISIBILITY




USA.gov is the U.S. government's official web portal to all federal, state and local government web resources and services.